GSAT0207

Last updated on Thu Dec 15 2016 00:17:11 GMT+0000 (Coordinated Universal Time)

1 41859U 16069A 16346.95437637 .00000086 00000-0 00000+0 0 9996 2 41859 54.6014 197.6101 0006918 276.5136 83.5038 1.70169235 403

Satellite not in orbit

GSAT0207